RSL815 NTAA-KLAX

Flight info

Callsign RSL815
Flight time N/A
Altitude 33000
Route IKELO4E IKELO DCT ORARE G575 RUTAK/N0494F350 G575 APIDD/N0478F370 G575 FICKY GOATZ2
Aircraft B77W/H-SDE1E2E3FGHIJ2J3J4J5M1RWXY/LB1D1

Departure

Time 2026-05-08 08:27
Airport Fa'a'ā International Airport (NTAA)

Arrival

Time N/A
Airport Los Angeles International Airport (KLAX)
Time Latitude Longitude Altitude Speed Heading
2026-05-08 08:14 -17.55834 -149.61023 19 ft 0 kts 142°
2026-05-08 08:20 -17.55827 -149.61029 20 ft 2 kts 126°
2026-05-08 08:21 -17.55818 -149.61044 22 ft 2 kts 107°
2026-05-08 08:21 -17.55816 -149.61061 24 ft 2 kts 86°
2026-05-08 08:21 -17.55818 -149.61078 24 ft 2 kts 72°
2026-05-08 08:21 -17.55824 -149.61094 23 ft 2 kts 63°
2026-05-08 08:22 -17.55832 -149.61109 23 ft 2 kts 57°
2026-05-08 08:22 -17.55840 -149.61122 22 ft 1 kts 53°
2026-05-08 08:22 -17.55843 -149.61126 22 ft 0 kts 52°
2026-05-08 08:23 -17.55842 -149.61125 19 ft 3 kts 52°
2026-05-08 08:24 -17.55765 -149.61084 19 ft 19 kts 347°
2026-05-08 08:24 -17.55690 -149.61190 19 ft 19 kts 248°
2026-05-08 08:24 -17.55780 -149.61324 18 ft 26 kts 234°
2026-05-08 08:24 -17.55900 -149.61501 19 ft 35 kts 234°
2026-05-08 08:25 -17.56050 -149.61718 22 ft 36 kts 233°
2026-05-08 08:25 -17.56183 -149.61916 25 ft 25 kts 234°
2026-05-08 08:25 -17.56228 -149.62005 25 ft 3 kts 271°
2026-05-08 08:25 -17.56247 -149.62023 24 ft 2 kts 174°
2026-05-08 08:26 -17.56248 -149.61994 22 ft 8 kts 51°
2026-05-08 08:26 -17.56207 -149.61948 25 ft 12 kts 53°
2026-05-08 08:26 -17.56025 -149.61685 20 ft 89 kts 53°
2026-05-08 08:26 -17.55482 -149.60895 24 ft 177 kts 54°
2026-05-08 08:27 -17.54664 -149.59687 500 ft 214 kts 57°
2026-05-08 08:27 -17.53755 -149.58450 1699 ft 217 kts 43°
2026-05-08 08:27 -17.52338 -149.57759 2432 ft 241 kts 11°
2026-05-08 08:27 -17.50612 -149.57906 2821 ft 257 kts 353°
2026-05-08 08:28 -17.48851 -149.58250 3399 ft 265 kts 353°
2026-05-08 08:28 -17.47008 -149.58591 4034 ft 272 kts 354°
2026-05-08 08:28 -17.45124 -149.58912 4758 ft 277 kts 355°
2026-05-08 08:28 -17.43203 -149.59216 5449 ft 281 kts 355°
2026-05-08 08:29 -17.41258 -149.59505 6188 ft 283 kts 355°
2026-05-08 08:29 -17.39297 -149.59784 6892 ft 286 kts 356°
2026-05-08 08:29 -17.37309 -149.60058 7513 ft 291 kts 356°
2026-05-08 08:29 -17.35287 -149.60332 8170 ft 295 kts 355°
2026-05-08 08:30 -17.33240 -149.60607 8817 ft 299 kts 355°
2026-05-08 08:30 -17.31167 -149.60884 9490 ft 302 kts 355°
2026-05-08 08:30 -17.27100 -149.60229 10311 ft 308 kts 38°
2026-05-08 08:31 -17.25361 -149.58829 10442 ft 326 kts 42°
2026-05-08 08:31 -17.23542 -149.57280 10584 ft 348 kts 42°
2026-05-08 08:31 -17.21616 -149.55631 10755 ft 369 kts 41°
2026-05-08 08:31 -17.19591 -149.53903 11156 ft 380 kts 41°
2026-05-08 08:32 -17.17514 -149.52141 11741 ft 387 kts 41°
2026-05-08 08:32 -17.15415 -149.50368 12390 ft 391 kts 41°
2026-05-08 08:32 -17.13287 -149.48579 13052 ft 395 kts 41°
2026-05-08 08:32 -17.11137 -149.46775 13707 ft 398 kts 41°
2026-05-08 08:33 -17.08963 -149.44952 14282 ft 402 kts 40°
2026-05-08 08:33 -17.06766 -149.43109 14837 ft 406 kts 41°
2026-05-08 08:33 -17.04548 -149.41251 15390 ft 410 kts 41°
2026-05-08 08:33 -17.02312 -149.39379 15931 ft 414 kts 41°
2026-05-08 08:34 -17.00056 -149.37490 16482 ft 418 kts 40°
2026-05-08 08:34 -16.97776 -149.35580 17006 ft 422 kts 40°
2026-05-08 08:34 -16.95477 -149.33655 17543 ft 426 kts 40°
2026-05-08 08:34 -16.93152 -149.31711 18058 ft 430 kts 40°
2026-05-08 08:35 -16.90808 -149.29752 18532 ft 434 kts 40°
2026-05-08 08:35 -16.88446 -149.27777 18985 ft 437 kts 40°
2026-05-08 08:35 -16.86074 -149.25793 19493 ft 438 kts 40°
2026-05-08 08:35 -16.83682 -149.23794 19948 ft 441 kts 40°
2026-05-08 08:36 -16.81276 -149.21784 20413 ft 444 kts 40°
2026-05-08 08:36 -16.78862 -149.19751 20842 ft 447 kts 40°
2026-05-08 08:36 -16.76482 -149.17646 21271 ft 450 kts 41°
2026-05-08 08:36 -16.74117 -149.15497 21725 ft 453 kts 42°
2026-05-08 08:37 -16.71774 -149.13352 22130 ft 456 kts 42°
2026-05-08 08:37 -16.69352 -149.11136 22543 ft 459 kts 41°
2026-05-08 08:37 -16.66942 -149.08941 22926 ft 462 kts 41°
2026-05-08 08:37 -16.64506 -149.06732 23320 ft 465 kts 41°
2026-05-08 08:38 -16.62050 -149.04513 23700 ft 468 kts 41°
2026-05-08 08:38 -16.59613 -149.02315 24016 ft 471 kts 41°
2026-05-08 08:38 -16.57458 -149.00373 24309 ft 472 kts 41°
2026-05-08 08:38 -16.54969 -148.98133 24653 ft 474 kts 41°
2026-05-08 08:39 -16.52495 -148.95906 24942 ft 478 kts 40°
2026-05-08 08:39 -16.49975 -148.93640 25244 ft 480 kts 40°
2026-05-08 08:39 -16.47441 -148.91360 25582 ft 482 kts 40°
2026-05-08 08:39 -16.44895 -148.89070 25863 ft 485 kts 40°
2026-05-08 08:40 -16.42337 -148.86770 26165 ft 487 kts 40°
2026-05-08 08:40 -16.39761 -148.84455 26438 ft 490 kts 40°
2026-05-08 08:40 -16.37173 -148.82130 26751 ft 492 kts 40°
2026-05-08 08:40 -16.34573 -148.79795 27056 ft 494 kts 40°
2026-05-08 08:41 -16.31970 -148.77458 27356 ft 496 kts 40°
2026-05-08 08:41 -16.29345 -148.75102 27584 ft 500 kts 40°
2026-05-08 08:41 -16.26708 -148.72736 27921 ft 501 kts 40°
2026-05-08 08:41 -16.24060 -148.70360 28168 ft 504 kts 40°
2026-05-08 08:42 -16.21401 -148.67977 28406 ft 506 kts 39°
2026-05-08 08:42 -16.18734 -148.65587 28723 ft 507 kts 40°
2026-05-08 08:42 -16.16055 -148.63188 28923 ft 509 kts 40°
2026-05-08 08:42 -16.13364 -148.60778 29178 ft 511 kts 39°
2026-05-08 08:43 -16.10669 -148.58364 29474 ft 511 kts 39°
2026-05-08 08:43 -16.07980 -148.55957 29824 ft 510 kts 39°
2026-05-08 08:43 -16.05291 -148.53551 30174 ft 510 kts 39°
2026-05-08 08:43 -16.02604 -148.51148 30446 ft 509 kts 39°
2026-05-08 08:44 -15.99918 -148.48748 30729 ft 509 kts 39°
2026-05-08 08:44 -15.97237 -148.46350 30939 ft 510 kts 40°
2026-05-08 08:44 -15.91817 -148.41510 31029 ft 513 kts 39°
2026-05-08 08:45 -15.89055 -148.39190 31331 ft 508 kts 36°
2026-05-08 08:45 -15.86232 -148.37005 31734 ft 505 kts 35°
2026-05-08 08:45 -15.83405 -148.34853 32107 ft 502 kts 35°
2026-05-08 08:45 -15.80624 -148.32746 32437 ft 501 kts 35°
2026-05-08 08:46 -15.77818 -148.30617 32759 ft 499 kts 35°
2026-05-08 08:46 -15.75022 -148.28488 32969 ft 499 kts 36°
2026-05-08 08:46 -15.69408 -148.24193 33022 ft 502 kts 36°
2026-05-08 08:47 -15.63807 -148.19897 33016 ft 499 kts 36°
2026-05-08 08:47 -15.58240 -148.15631 33022 ft 496 kts 36°
2026-05-08 08:48 -15.52693 -148.11386 33022 ft 495 kts 36°
2026-05-08 08:48 -15.47144 -148.07143 33027 ft 496 kts 36°
2026-05-08 08:49 -15.41582 -148.02892 33030 ft 497 kts 36°
2026-05-08 08:49 -15.36011 -147.98637 33025 ft 498 kts 36°
2026-05-08 08:50 -15.30426 -147.94375 33022 ft 499 kts 36°
2026-05-08 08:50 -15.24831 -147.90108 33022 ft 500 kts 36°
2026-05-08 08:51 -15.19227 -147.85836 33020 ft 500 kts 36°
2026-05-08 08:51 -15.13618 -147.81564 33023 ft 500 kts 36°
2026-05-08 08:52 -15.08013 -147.77298 33020 ft 500 kts 36°
2026-05-08 08:52 -15.02406 -147.73032 33022 ft 500 kts 36°
2026-05-08 08:53 -14.96801 -147.68772 33022 ft 500 kts 36°
2026-05-08 08:53 -14.90876 -147.65052 33027 ft 498 kts 27°
2026-05-08 08:54 -14.84709 -147.61787 33026 ft 498 kts 26°
2026-05-08 08:54 -14.78580 -147.58549 33025 ft 498 kts 27°
2026-05-08 08:55 -14.72430 -147.55262 33021 ft 498 kts 27°
2026-05-08 08:55 -14.66286 -147.51960 33023 ft 498 kts 27°
2026-05-08 08:56 -14.60134 -147.48651 33022 ft 498 kts 27°
2026-05-08 08:56 -14.53985 -147.45348 33022 ft 498 kts 27°
2026-05-08 08:57 -14.47832 -147.42047 33019 ft 499 kts 27°
2026-05-08 08:57 -14.41674 -147.38746 33022 ft 499 kts 27°
2026-05-08 08:58 -14.35518 -147.35447 33022 ft 499 kts 27°
2026-05-08 08:58 -14.29352 -147.32145 33022 ft 499 kts 27°
2026-05-08 08:59 -14.23188 -147.28847 33020 ft 500 kts 27°
2026-05-08 08:59 -14.17015 -147.25545 33009 ft 500 kts 27°
2026-05-08 09:00 -14.10842 -147.22246 33008 ft 500 kts 27°
2026-05-08 09:00 -14.04662 -147.18945 33015 ft 500 kts 27°
2026-05-08 09:01 -13.99528 -147.16204 33007 ft 500 kts 27°
2026-05-08 09:01 -13.93346 -147.12905 33004 ft 500 kts 27°
2026-05-08 09:02 -13.87170 -147.09612 33010 ft 500 kts 27°
2026-05-08 09:02 -13.79986 -147.05784 33006 ft 500 kts 27°
2026-05-08 09:03 -13.74804 -147.03024 33011 ft 500 kts 27°
2026-05-08 09:03 -13.68623 -146.99734 32999 ft 500 kts 27°
2026-05-08 09:04 -13.62438 -146.96444 33007 ft 500 kts 27°
2026-05-08 09:04 -13.56297 -146.93179 33015 ft 500 kts 28°
2026-05-08 09:05 -13.50111 -146.89892 33007 ft 501 kts 27°
2026-05-08 09:05 -13.43920 -146.86605 33008 ft 501 kts 27°
2026-05-08 09:06 -13.37728 -146.83319 33004 ft 501 kts 27°
2026-05-08 09:06 -13.31542 -146.80037 33009 ft 500 kts 27°
2026-05-08 09:07 -13.25354 -146.76757 32998 ft 500 kts 27°
2026-05-08 09:07 -13.19171 -146.73482 33001 ft 500 kts 27°
2026-05-08 09:08 -13.12990 -146.70209 33002 ft 500 kts 27°
2026-05-08 09:08 -13.06814 -146.66940 33002 ft 499 kts 27°
2026-05-08 09:09 -13.00638 -146.63674 33004 ft 499 kts 27°
2026-05-08 09:09 -12.94464 -146.60411 33002 ft 499 kts 28°
2026-05-08 09:10 -12.88296 -146.57152 33000 ft 499 kts 28°
2026-05-08 09:10 -12.82132 -146.53898 33003 ft 498 kts 28°
2026-05-08 09:11 -12.75972 -146.50647 32998 ft 498 kts 28°
2026-05-08 09:11 -12.69811 -146.47397 32993 ft 498 kts 28°
2026-05-08 09:12 -12.63691 -146.44172 32993 ft 498 kts 28°
2026-05-08 09:12 -12.57528 -146.40925 32999 ft 498 kts 28°
2026-05-08 09:13 -12.51364 -146.37679 32998 ft 499 kts 28°
2026-05-08 09:13 -12.45193 -146.34432 32996 ft 499 kts 28°
2026-05-08 09:14 -12.39019 -146.31184 32995 ft 499 kts 28°
2026-05-08 09:14 -12.32841 -146.27936 32990 ft 499 kts 28°
2026-05-08 09:15 -12.26667 -146.24691 32994 ft 499 kts 28°
2026-05-08 09:15 -12.20488 -146.21447 32994 ft 499 kts 28°
2026-05-08 09:16 -12.14309 -146.18204 32993 ft 499 kts 28°
2026-05-08 09:16 -12.08128 -146.14962 32993 ft 499 kts 28°
2026-05-08 09:17 -12.01946 -146.11720 32993 ft 499 kts 28°
2026-05-08 09:17 -11.95763 -146.08480 32988 ft 499 kts 28°
2026-05-08 09:18 -11.89581 -146.05242 32986 ft 499 kts 28°
2026-05-08 09:18 -11.83398 -146.02005 32982 ft 499 kts 28°
2026-05-08 09:19 -11.77213 -145.98769 32986 ft 499 kts 28°
2026-05-08 09:19 -11.71030 -145.95536 32990 ft 499 kts 28°
2026-05-08 09:20 -11.64850 -145.92305 32988 ft 499 kts 28°
2026-05-08 09:20 -11.58667 -145.89075 32985 ft 499 kts 28°
2026-05-08 09:21 -11.52535 -145.85873 32980 ft 498 kts 28°
2026-05-08 09:23 -11.30956 -145.74617 32980 ft 497 kts 28°
2026-05-08 09:23 -11.24798 -145.71409 32981 ft 497 kts 28°
2026-05-08 09:24 -11.18646 -145.68205 32978 ft 497 kts 27°
2026-05-08 09:24 -11.12493 -145.65002 32976 ft 496 kts 28°
2026-05-08 09:25 -11.06351 -145.61807 32975 ft 496 kts 28°
2026-05-08 09:25 -11.00208 -145.58612 32983 ft 495 kts 28°
2026-05-08 09:26 -10.94069 -145.55421 32979 ft 495 kts 28°
2026-05-08 09:26 -10.87936 -145.52235 32981 ft 495 kts 28°
2026-05-08 09:27 -10.81809 -145.49052 32976 ft 495 kts 28°
2026-05-08 09:27 -10.75679 -145.45871 32979 ft 494 kts 28°
2026-05-08 09:28 -10.69556 -145.42694 32974 ft 495 kts 28°
2026-05-08 09:28 -10.63422 -145.39513 32976 ft 495 kts 28°
2026-05-08 09:29 -10.57291 -145.36334 32975 ft 495 kts 27°
2026-05-08 09:29 -10.51159 -145.33157 32976 ft 495 kts 27°
2026-05-08 09:30 -10.45069 -145.30003 32976 ft 494 kts 28°
2026-05-08 09:30 -10.38941 -145.26831 32970 ft 494 kts 27°
2026-05-08 09:31 -10.32811 -145.23659 32971 ft 494 kts 27°
2026-05-08 09:31 -10.26687 -145.20491 32974 ft 494 kts 27°
2026-05-08 09:32 -10.20562 -145.17325 32973 ft 494 kts 28°
2026-05-08 09:32 -10.14435 -145.14158 32969 ft 494 kts 28°
2026-05-08 09:33 -10.08311 -145.10994 32971 ft 494 kts 27°
2026-05-08 09:33 -10.02188 -145.07831 32967 ft 494 kts 27°
2026-05-08 09:34 -9.96065 -145.04669 32973 ft 494 kts 27°
2026-05-08 09:34 -9.89949 -145.01504 32971 ft 494 kts 27°
2026-05-08 09:35 -9.83825 -144.98333 32972 ft 494 kts 27°
2026-05-08 09:35 -9.77704 -144.95166 32969 ft 494 kts 27°
2026-05-08 09:36 -9.71586 -144.92002 32969 ft 494 kts 27°
2026-05-08 09:36 -9.65467 -144.88839 32969 ft 494 kts 27°
2026-05-08 09:37 -9.59343 -144.85675 32968 ft 494 kts 27°
2026-05-08 09:37 -9.53215 -144.82511 32964 ft 494 kts 27°
2026-05-08 09:38 -9.47082 -144.79345 32967 ft 495 kts 27°
2026-05-08 09:38 -9.40950 -144.76179 32964 ft 495 kts 27°
2026-05-08 09:39 -9.34816 -144.73015 32968 ft 495 kts 27°
2026-05-08 09:39 -9.28681 -144.69852 32963 ft 495 kts 27°
2026-05-08 09:40 -9.22588 -144.66712 32963 ft 495 kts 27°
2026-05-08 09:40 -9.16452 -144.63550 32962 ft 495 kts 27°
2026-05-08 09:41 -9.10310 -144.60386 32961 ft 495 kts 27°
2026-05-08 09:41 -9.04170 -144.57226 32961 ft 495 kts 27°
2026-05-08 09:42 -8.98026 -144.54064 32957 ft 495 kts 27°
2026-05-08 09:42 -8.91886 -144.50905 32961 ft 496 kts 27°
2026-05-08 09:43 -8.85738 -144.47744 32956 ft 496 kts 27°
2026-05-08 09:43 -8.79589 -144.44583 32958 ft 496 kts 27°
2026-05-08 09:44 -8.73435 -144.41420 32954 ft 496 kts 27°
2026-05-08 09:44 -8.67286 -144.38262 32955 ft 496 kts 27°
2026-05-08 09:45 -8.61131 -144.35101 32954 ft 496 kts 27°
2026-05-08 09:45 -8.54976 -144.31942 32954 ft 496 kts 27°
2026-05-08 09:46 -8.48823 -144.28785 32951 ft 496 kts 27°
2026-05-08 09:46 -8.42710 -144.25650 32950 ft 496 kts 27°
2026-05-08 09:47 -8.36518 -144.22475 32955 ft 496 kts 27°
2026-05-08 09:47 -8.30367 -144.19322 32951 ft 496 kts 27°
2026-05-08 09:48 -8.24263 -144.16195 32949 ft 495 kts 27°
2026-05-08 09:48 -8.18115 -144.13045 32948 ft 495 kts 27°
2026-05-08 09:49 -8.11973 -144.09901 32946 ft 495 kts 27°
2026-05-08 09:49 -8.05832 -144.06757 32947 ft 495 kts 27°
2026-05-08 09:50 -7.99689 -144.03614 32945 ft 495 kts 27°
2026-05-08 09:50 -7.93550 -144.00474 32945 ft 495 kts 27°
2026-05-08 09:51 -7.87415 -143.97337 32948 ft 494 kts 27°
2026-05-08 09:51 -7.82313 -143.94730 32941 ft 494 kts 27°
2026-05-08 09:52 -7.76179 -143.91595 32942 ft 494 kts 27°
2026-05-08 09:52 -7.70046 -143.88462 32941 ft 494 kts 27°
2026-05-08 09:53 -7.63906 -143.85326 32943 ft 494 kts 27°
2026-05-08 09:53 -7.57774 -143.82195 32941 ft 494 kts 27°
2026-05-08 09:54 -7.51632 -143.79061 32943 ft 495 kts 27°
2026-05-08 09:54 -7.45484 -143.75925 32938 ft 495 kts 27°
2026-05-08 09:55 -7.38297 -143.72260 32943 ft 496 kts 27°
2026-05-08 09:55 -7.33183 -143.69652 32940 ft 496 kts 27°
2026-05-08 09:56 -7.27027 -143.66514 32943 ft 496 kts 27°
2026-05-08 09:56 -7.20870 -143.63377 32944 ft 496 kts 27°
2026-05-08 09:57 -7.11642 -143.58677 32942 ft 496 kts 27°
2026-05-08 09:57 -7.05488 -143.55544 32939 ft 495 kts 27°
2026-05-08 09:58 -6.99335 -143.52412 32940 ft 495 kts 27°
2026-05-08 09:58 -6.93183 -143.49282 32940 ft 495 kts 27°
2026-05-08 09:59 -6.87033 -143.46153 32940 ft 495 kts 27°
2026-05-08 09:59 -6.80881 -143.43024 32939 ft 495 kts 27°
2026-05-08 10:00 -6.74728 -143.39896 32939 ft 495 kts 26°
2026-05-08 10:00 -6.68576 -143.36769 32940 ft 496 kts 26°
2026-05-08 10:01 -6.62457 -143.33660 32938 ft 496 kts 26°
2026-05-08 10:01 -6.56296 -143.30531 32941 ft 496 kts 26°
2026-05-08 10:02 -6.50127 -143.27397 32940 ft 497 kts 26°
2026-05-08 10:02 -6.43955 -143.24264 32940 ft 497 kts 26°
2026-05-08 10:03 -6.37776 -143.21128 32935 ft 498 kts 26°
2026-05-08 10:03 -6.31592 -143.17990 32932 ft 498 kts 26°
2026-05-08 10:04 -6.25401 -143.14850 32936 ft 499 kts 26°
2026-05-08 10:04 -6.19195 -143.11703 32944 ft 500 kts 26°
2026-05-08 10:05 -6.12977 -143.08550 32934 ft 501 kts 26°
2026-05-08 10:05 -6.06751 -143.05394 32936 ft 501 kts 26°
2026-05-08 10:06 -6.00519 -143.02236 32938 ft 502 kts 26°
2026-05-08 10:06 -5.94321 -142.99095 32934 ft 502 kts 26°
2026-05-08 10:07 -5.88079 -142.95934 32934 ft 503 kts 26°
2026-05-08 10:07 -5.81830 -142.92771 32931 ft 503 kts 25°
2026-05-08 10:08 -5.75574 -142.89604 32929 ft 504 kts 25°
2026-05-08 10:08 -5.69314 -142.86435 32931 ft 504 kts 25°
2026-05-08 10:09 -5.63040 -142.83260 32925 ft 505 kts 25°
2026-05-08 10:09 -5.56762 -142.80084 32933 ft 506 kts 25°
2026-05-08 10:10 -5.50478 -142.76906 32932 ft 506 kts 25°
2026-05-08 10:10 -5.44193 -142.73729 32929 ft 506 kts 25°
2026-05-08 10:11 -5.37911 -142.70552 32929 ft 505 kts 25°
2026-05-08 10:11 -5.31635 -142.67380 32923 ft 505 kts 25°
2026-05-08 10:12 -5.25363 -142.64212 32924 ft 505 kts 25°
2026-05-08 10:12 -5.19086 -142.61041 32925 ft 505 kts 25°
2026-05-08 10:13 -5.12817 -142.57874 32923 ft 505 kts 25°
2026-05-08 10:13 -5.06546 -142.54707 32922 ft 505 kts 25°
2026-05-08 10:14 -5.00278 -142.51542 32924 ft 505 kts 25°
2026-05-08 10:14 -4.94004 -142.48379 32925 ft 504 kts 25°
2026-05-08 10:15 -4.87731 -142.45221 32923 ft 504 kts 25°
2026-05-08 10:15 -4.81501 -142.42084 32922 ft 504 kts 25°
2026-05-08 10:16 -4.75230 -142.38925 32921 ft 504 kts 25°